Year,Month,Day,Hour,Minute,Value (Times are PST for windgust in km/hr)
2015,09,01,00,01,3.20
2015,09,01,00,02,4.80
2015,09,01,00,03,3.20
2015,09,01,00,04,1.60
2015,09,01,00,06,1.60
2015,09,01,00,09,4.80
2015,09,01,00,10,4.80
2015,09,01,00,12,4.80
2015,09,01,00,13,4.80
2015,09,01,00,14,3.20
2015,09,01,00,15,1.60
2015,09,01,00,16,4.80
2015,09,01,00,17,4.80
2015,09,01,00,18,1.60
2015,09,01,00,19,4.80
2015,09,01,00,20,4.80
2015,09,01,00,21,1.60
2015,09,01,00,23,1.60
2015,09,01,00,24,1.60
2015,09,01,00,25,1.60
2015,09,01,00,26,3.20
2015,09,01,00,27,4.80
2015,09,01,00,28,3.20
2015,09,01,00,29,6.40
2015,09,01,00,30,6.40
2015,09,01,00,34,9.60
2015,09,01,00,35,6.40
2015,09,01,00,40,1.60
2015,09,01,00,41,1.60
2015,09,01,00,42,1.60
2015,09,01,00,43,4.80
2015,09,01,00,44,3.20
2015,09,01,00,45,4.80
2015,09,01,00,46,3.20
2015,09,01,00,47,1.60
2015,09,01,00,49,1.60
2015,09,01,00,52,1.60
2015,09,01,00,53,3.20
2015,09,01,00,54,6.40
2015,09,01,00,55,4.80
2015,09,01,00,56,4.80
2015,09,01,00,58,4.80
2015,09,01,00,59,4.80
2015,09,01,01,00,1.60
2015,09,01,01,01,3.20
2015,09,01,01,02,1.60
2015,09,01,01,03,6.40
2015,09,01,01,04,8.10
2015,09,01,01,06,1.60
2015,09,01,01,07,4.80
2015,09,01,01,08,3.20
2015,09,01,01,09,1.60
2015,09,01,01,11,4.80
2015,09,01,01,12,6.40
2015,09,01,01,13,8.10
2015,09,01,01,14,9.60
2015,09,01,01,18,4.80
2015,09,01,01,19,6.40
2015,09,01,01,21,1.60
2015,09,01,01,24,1.60
2015,09,01,01,28,1.60
2015,09,01,01,30,1.60
2015,09,01,01,33,4.80
2015,09,01,01,34,4.80
2015,09,01,01,35,1.60
2015,09,01,01,37,1.60
2015,09,01,01,38,1.60
2015,09,01,01,39,3.20
2015,09,01,01,40,4.80
2015,09,01,01,41,1.60
2015,09,01,01,42,1.60
2015,09,01,01,43,1.60
2015,09,01,01,44,6.40
2015,09,01,01,47,3.20
2015,09,01,01,49,1.60
2015,09,01,01,51,1.60
2015,09,01,01,53,4.80
2015,09,01,01,54,6.40
2015,09,01,01,55,4.80
2015,09,01,01,56,3.20
2015,09,01,02,00,3.20
2015,09,01,02,01,1.60
2015,09,01,02,05,1.60
2015,09,01,02,08,1.60
2015,09,01,02,11,3.20
2015,09,01,02,13,1.60
2015,09,01,02,28,3.20
2015,09,01,02,29,3.20
2015,09,01,02,32,3.20
2015,09,01,02,34,1.60
2015,09,01,02,41,1.60
2015,09,01,02,56,1.60
2015,09,01,03,03,1.60
2015,09,01,03,08,1.60
2015,09,01,03,12,1.60
2015,09,01,03,14,4.80
2015,09,01,03,15,3.20
2015,09,01,03,31,1.60
2015,09,01,03,32,3.20
2015,09,01,03,33,1.60
2015,09,01,03,35,1.60
2015,09,01,03,43,3.20
2015,09,01,03,44,1.60
2015,09,01,04,14,1.60
2015,09,01,04,16,4.80
2015,09,01,04,17,1.60
2015,09,01,04,18,3.20
2015,09,01,04,19,3.20
2015,09,01,04,43,3.20
2015,09,01,04,44,3.20
2015,09,01,04,45,1.60
2015,09,01,04,47,1.60
2015,09,01,04,49,3.20
2015,09,01,04,50,1.60
2015,09,01,05,08,1.60
2015,09,01,05,09,3.20
2015,09,01,05,10,3.20
2015,09,01,05,11,3.20
2015,09,01,05,12,3.20
2015,09,01,05,25,3.20
2015,09,01,05,30,3.20
2015,09,01,05,31,3.20
2015,09,01,05,32,1.60
2015,09,01,05,38,4.80
2015,09,01,05,39,1.60
2015,09,01,05,40,1.60
2015,09,01,05,43,1.60
2015,09,01,05,46,1.60
2015,09,01,05,47,1.60
2015,09,01,05,52,1.60
2015,09,01,05,53,1.60
2015,09,01,05,55,1.60
2015,09,01,05,56,3.20
2015,09,01,05,57,1.60
2015,09,01,06,02,1.60
2015,09,01,06,04,1.60
2015,09,01,06,06,1.60
2015,09,01,06,08,3.20
2015,09,01,06,09,3.20
2015,09,01,06,10,3.20
2015,09,01,06,17,1.60
2015,09,01,06,19,1.60
2015,09,01,06,25,3.20
2015,09,01,06,26,3.20
2015,09,01,06,27,1.60
2015,09,01,06,29,1.60
2015,09,01,06,30,3.20
2015,09,01,06,36,1.60
2015,09,01,06,37,3.20
2015,09,01,06,38,3.20
2015,09,01,06,39,1.60
2015,09,01,06,45,1.60
2015,09,01,06,46,1.60
2015,09,01,06,50,1.60
2015,09,01,06,51,3.20
2015,09,01,06,52,3.20
2015,09,01,06,54,1.60
2015,09,01,07,11,1.60
2015,09,01,07,12,3.20
2015,09,01,07,26,1.60
2015,09,01,07,28,3.20
2015,09,01,07,29,3.20
2015,09,01,07,30,1.60
2015,09,01,07,31,1.60
2015,09,01,07,35,3.20
2015,09,01,07,36,1.60
2015,09,01,07,37,1.60
2015,09,01,07,52,1.60
2015,09,01,07,57,1.60
2015,09,01,08,19,1.60
2015,09,01,08,20,1.60
2015,09,01,08,21,3.20
2015,09,01,08,22,1.60
2015,09,01,08,23,1.60
2015,09,01,08,37,1.60
2015,09,01,08,38,1.60
2015,09,01,09,03,4.80
2015,09,01,09,04,4.80
2015,09,01,09,05,4.80
2015,09,01,09,06,4.80
2015,09,01,09,09,1.60
2015,09,01,09,11,3.20
2015,09,01,09,12,1.60
2015,09,01,09,13,1.60
2015,09,01,09,15,1.60
2015,09,01,09,21,1.60
2015,09,01,09,22,1.60
2015,09,01,09,23,3.20
2015,09,01,09,24,4.80
2015,09,01,09,25,3.20
2015,09,01,09,26,1.60
2015,09,01,09,29,1.60
2015,09,01,09,30,3.20
2015,09,01,09,31,3.20
2015,09,01,09,32,3.20
2015,09,01,09,33,3.20
2015,09,01,09,34,3.20
2015,09,01,09,35,3.20
2015,09,01,09,38,1.60
2015,09,01,09,41,1.60
2015,09,01,09,43,1.60
2015,09,01,09,44,3.20
2015,09,01,09,45,3.20
2015,09,01,09,56,3.20
2015,09,01,09,57,3.20
2015,09,01,09,58,3.20
2015,09,01,09,59,3.20
2015,09,01,10,00,4.80
2015,09,01,10,01,3.20
2015,09,01,10,02,1.60
2015,09,01,10,03,3.20
2015,09,01,10,04,1.60
2015,09,01,10,06,4.80
2015,09,01,10,14,1.60
2015,09,01,10,15,4.80
2015,09,01,10,16,4.80
2015,09,01,10,17,4.80
2015,09,01,10,19,1.60
2015,09,01,10,21,6.40
2015,09,01,10,22,6.40
2015,09,01,10,23,3.20
2015,09,01,10,24,6.40
2015,09,01,10,25,6.40
2015,09,01,10,26,3.20
2015,09,01,10,27,3.20
2015,09,01,10,30,1.60
2015,09,01,10,31,4.80
2015,09,01,10,32,6.40
2015,09,01,10,33,9.60
2015,09,01,10,34,3.20
2015,09,01,10,35,1.60
2015,09,01,10,36,4.80
2015,09,01,10,37,8.10
2015,09,01,10,38,3.20
2015,09,01,10,39,6.40
2015,09,01,10,40,6.40
2015,09,01,10,41,4.80
2015,09,01,10,42,1.60
2015,09,01,10,45,3.20
2015,09,01,10,46,3.20
2015,09,01,10,47,1.60
2015,09,01,10,49,1.60
2015,09,01,10,54,6.40
2015,09,01,10,55,6.40
2015,09,01,10,56,4.80
2015,09,01,10,57,3.20
2015,09,01,10,59,1.60
2015,09,01,11,11,1.60
2015,09,01,11,12,1.60
2015,09,01,11,26,1.60
2015,09,01,11,27,1.60
2015,09,01,11,29,1.60
2015,09,01,11,30,1.60
2015,09,01,11,39,1.60
2015,09,01,11,42,1.60
2015,09,01,11,51,1.60
2015,09,01,11,52,1.60
2015,09,01,11,53,3.20
2015,09,01,11,54,3.20
2015,09,01,11,58,3.20
2015,09,01,12,00,1.60
2015,09,01,12,02,6.40
2015,09,01,12,03,4.80
2015,09,01,12,04,4.80
2015,09,01,12,05,1.60
2015,09,01,12,07,6.40
2015,09,01,12,09,4.80
2015,09,01,12,10,4.80
2015,09,01,12,11,4.80
2015,09,01,12,12,6.40
2015,09,01,12,13,8.10
2015,09,01,12,14,6.40
2015,09,01,12,15,3.20
2015,09,01,12,16,1.60
2015,09,01,12,17,4.80
2015,09,01,12,18,6.40
2015,09,01,12,19,8.10
2015,09,01,12,20,8.10
2015,09,01,12,21,6.40
2015,09,01,12,22,4.80
2015,09,01,12,23,6.40
2015,09,01,12,24,8.10
2015,09,01,12,25,6.40
2015,09,01,12,26,8.10
2015,09,01,12,27,9.60
2015,09,01,12,28,8.10
2015,09,01,12,29,6.40
2015,09,01,12,30,8.10
2015,09,01,12,31,6.40
2015,09,01,12,32,6.40
2015,09,01,12,33,16.10
2015,09,01,12,34,9.60
2015,09,01,12,35,4.80
2015,09,01,12,36,4.80
2015,09,01,12,38,3.20
2015,09,01,12,39,9.60
2015,09,01,12,40,11.30
2015,09,01,12,41,11.30
2015,09,01,12,42,16.10
2015,09,01,12,43,9.60
2015,09,01,12,44,8.10
2015,09,01,12,45,9.60
2015,09,01,12,46,17.70
2015,09,01,12,47,16.10
2015,09,01,12,48,9.60
2015,09,01,12,49,6.40
2015,09,01,12,50,8.10
2015,09,01,12,51,1.60
2015,09,01,12,52,1.60
2015,09,01,12,53,6.40
2015,09,01,12,54,8.10
2015,09,01,12,55,4.80
2015,09,01,12,57,16.10
2015,09,01,12,58,20.90
2015,09,01,12,59,27.40
2015,09,01,13,00,30.60
2015,09,01,13,01,25.70
2015,09,01,13,02,22.50
2015,09,01,13,03,16.10
2015,09,01,13,04,22.50
2015,09,01,13,05,38.60
2015,09,01,13,06,19.30
2015,09,01,13,07,25.70
2015,09,01,13,08,22.50
2015,09,01,13,09,14.50
2015,09,01,13,10,20.90
2015,09,01,13,11,30.60
2015,09,01,13,12,24.20
2015,09,01,13,13,29.00
2015,09,01,13,14,29.00
2015,09,01,13,15,25.70
2015,09,01,13,16,24.20
2015,09,01,13,17,30.60
2015,09,01,13,18,19.30
2015,09,01,13,19,16.10
2015,09,01,13,20,24.20
2015,09,01,13,21,27.40
2015,09,01,13,22,20.90
2015,09,01,13,23,14.50
2015,09,01,13,24,17.70
2015,09,01,13,25,33.80
2015,09,01,13,26,20.90
2015,09,01,13,27,16.10
2015,09,01,13,28,14.50
2015,09,01,13,29,11.30
2015,09,01,13,30,6.40
2015,09,01,13,31,20.90
2015,09,01,13,32,12.90
2015,09,01,13,33,14.50
2015,09,01,13,34,17.70
2015,09,01,13,35,9.60
2015,09,01,13,36,11.30
2015,09,01,13,37,6.40
2015,09,01,13,38,20.90
2015,09,01,13,39,17.70
2015,09,01,13,40,9.60
2015,09,01,13,41,14.50
2015,09,01,13,42,8.10
2015,09,01,13,43,6.40
2015,09,01,13,44,11.30
2015,09,01,13,45,19.30
2015,09,01,13,46,9.60
2015,09,01,13,47,14.50
2015,09,01,13,48,22.50
2015,09,01,13,49,19.30
2015,09,01,13,50,19.30
2015,09,01,13,51,16.10
2015,09,01,13,52,11.30
2015,09,01,13,53,17.70
2015,09,01,13,54,17.70
2015,09,01,13,55,17.70
2015,09,01,13,56,9.60
2015,09,01,13,57,19.30
2015,09,01,13,58,16.10
2015,09,01,13,59,1.60
2015,09,01,14,00,4.80
2015,09,01,14,01,6.40
2015,09,01,14,02,11.30
2015,09,01,14,03,9.60
2015,09,01,14,04,17.70
2015,09,01,14,05,6.40
2015,09,01,14,06,16.10
2015,09,01,14,07,19.30
2015,09,01,14,08,8.10
2015,09,01,14,09,11.30
2015,09,01,14,10,14.50
2015,09,01,14,11,11.30
2015,09,01,14,12,25.70
2015,09,01,14,13,19.30
2015,09,01,14,14,20.90
2015,09,01,14,15,11.30
2015,09,01,14,16,14.50
2015,09,01,14,17,6.40
2015,09,01,14,18,22.50
2015,09,01,14,19,22.50
2015,09,01,14,20,14.50
2015,09,01,14,21,19.30
2015,09,01,14,22,25.70
2015,09,01,14,23,22.50
2015,09,01,14,24,1.60
2015,09,01,14,25,8.10
2015,09,01,14,26,6.40
2015,09,01,14,27,9.60
2015,09,01,14,28,4.80
2015,09,01,14,29,8.10
2015,09,01,14,30,8.10
2015,09,01,14,31,6.40
2015,09,01,14,32,8.10
2015,09,01,14,33,16.10
2015,09,01,14,34,8.10
2015,09,01,14,35,16.10
2015,09,01,14,36,16.10
2015,09,01,14,37,17.70
2015,09,01,14,38,6.40
2015,09,01,14,39,16.10
2015,09,01,14,40,20.90
2015,09,01,14,41,20.90
2015,09,01,14,42,17.70
2015,09,01,14,43,20.90
2015,09,01,14,44,16.10
2015,09,01,14,45,16.10
2015,09,01,14,46,14.50
2015,09,01,14,47,24.20
2015,09,01,14,48,17.70
2015,09,01,14,49,20.90
2015,09,01,14,50,24.20
2015,09,01,14,51,6.40
2015,09,01,14,52,16.10
2015,09,01,14,53,20.90
2015,09,01,14,54,16.10
2015,09,01,14,55,8.10
2015,09,01,14,56,9.60
2015,09,01,14,57,16.10
2015,09,01,14,58,20.90
2015,09,01,14,59,24.20
2015,09,01,15,00,25.70
2015,09,01,15,01,22.50
2015,09,01,15,02,19.30
2015,09,01,15,03,11.30
2015,09,01,15,04,9.60
2015,09,01,15,05,17.70
2015,09,01,15,06,17.70
2015,09,01,15,07,8.10
2015,09,01,15,08,17.70
2015,09,01,15,09,19.30
2015,09,01,15,10,32.20
2015,09,01,15,11,25.70
2015,09,01,15,12,20.90
2015,09,01,15,13,17.70
2015,09,01,15,14,22.50
2015,09,01,15,15,16.10
2015,09,01,15,16,19.30
2015,09,01,15,17,29.00
2015,09,01,15,18,24.20
2015,09,01,15,19,25.70
2015,09,01,15,20,19.30
2015,09,01,15,21,19.30
2015,09,01,15,22,9.60
2015,09,01,15,23,14.50
2015,09,01,15,24,19.30
2015,09,01,15,25,14.50
2015,09,01,15,26,14.50
2015,09,01,15,27,1.60
2015,09,01,15,28,9.60
2015,09,01,15,29,16.10
2015,09,01,15,30,20.90
2015,09,01,15,31,14.50
2015,09,01,15,32,16.10
2015,09,01,15,33,14.50
2015,09,01,15,34,11.30
2015,09,01,15,35,20.90
2015,09,01,15,36,24.20
2015,09,01,15,37,20.90
2015,09,01,15,38,17.70
2015,09,01,15,39,11.30
2015,09,01,15,40,22.50
2015,09,01,15,41,20.90
2015,09,01,15,42,11.30
2015,09,01,15,43,20.90
2015,09,01,15,44,16.10
2015,09,01,15,45,16.10
2015,09,01,15,46,17.70
2015,09,01,15,47,27.40
2015,09,01,15,48,19.30
2015,09,01,15,49,19.30
2015,09,01,15,50,14.50
2015,09,01,15,51,16.10
2015,09,01,15,52,17.70
2015,09,01,15,53,25.70
2015,09,01,15,54,19.30
2015,09,01,15,55,19.30
2015,09,01,15,56,20.90
2015,09,01,15,57,24.20
2015,09,01,15,58,25.70
2015,09,01,15,59,19.30
2015,09,01,16,00,22.50
2015,09,01,16,01,14.50
2015,09,01,16,02,19.30
2015,09,01,16,03,24.20
2015,09,01,16,04,25.70
2015,09,01,16,05,16.10
2015,09,01,16,06,17.70
2015,09,01,16,07,9.60
2015,09,01,16,08,14.50
2015,09,01,16,09,11.30
2015,09,01,16,10,17.70
2015,09,01,16,11,25.70
2015,09,01,16,12,17.70
2015,09,01,16,13,25.70
2015,09,01,16,14,24.20
2015,09,01,16,15,12.90
2015,09,01,16,16,8.10
2015,09,01,16,17,8.10
2015,09,01,16,18,11.30
2015,09,01,16,19,12.90
2015,09,01,16,20,14.50
2015,09,01,16,21,22.50
2015,09,01,16,22,19.30
2015,09,01,16,23,16.10
2015,09,01,16,24,22.50
2015,09,01,16,25,25.70
2015,09,01,16,26,16.10
2015,09,01,16,27,16.10
2015,09,01,16,28,9.60
2015,09,01,16,29,9.60
2015,09,01,16,30,11.30
2015,09,01,16,31,17.70
2015,09,01,16,32,14.50
2015,09,01,16,33,17.70
2015,09,01,16,34,25.70
2015,09,01,16,35,16.10
2015,09,01,16,36,16.10
2015,09,01,16,37,14.50
2015,09,01,16,38,9.60
2015,09,01,16,39,6.40
2015,09,01,16,40,17.70
2015,09,01,16,41,22.50
2015,09,01,16,42,20.90
2015,09,01,16,43,12.90
2015,09,01,16,44,20.90
2015,09,01,16,45,22.50
2015,09,01,16,46,25.70
2015,09,01,16,47,24.20
2015,09,01,16,48,19.30
2015,09,01,16,49,16.10
2015,09,01,16,50,11.30
2015,09,01,16,51,16.10
2015,09,01,16,52,11.30
2015,09,01,16,53,11.30
2015,09,01,16,54,11.30
2015,09,01,16,55,12.90
2015,09,01,16,56,27.40
2015,09,01,16,57,16.10
2015,09,01,16,58,17.70
2015,09,01,16,59,19.30
2015,09,01,17,00,19.30
2015,09,01,17,01,11.30
2015,09,01,17,02,14.50
2015,09,01,17,03,14.50
2015,09,01,17,04,19.30
2015,09,01,17,05,14.50
2015,09,01,17,06,16.10
2015,09,01,17,07,20.90
2015,09,01,17,08,24.20
2015,09,01,17,09,22.50
2015,09,01,17,10,25.70
2015,09,01,17,11,22.50
2015,09,01,17,12,20.90
2015,09,01,17,13,25.70
2015,09,01,17,14,16.10
2015,09,01,17,15,29.00
2015,09,01,17,16,11.30
2015,09,01,17,17,14.50
2015,09,01,17,18,16.10
2015,09,01,17,19,11.30
2015,09,01,17,20,24.20
2015,09,01,17,21,14.50
2015,09,01,17,22,20.90
2015,09,01,17,23,24.20
2015,09,01,17,24,30.60
2015,09,01,17,25,22.50
2015,09,01,17,26,19.30
2015,09,01,17,27,17.70
2015,09,01,17,28,14.50
2015,09,01,17,29,14.50
2015,09,01,17,30,30.60
2015,09,01,17,31,17.70
2015,09,01,17,32,9.60
2015,09,01,17,33,17.70
2015,09,01,17,34,20.90
2015,09,01,17,35,14.50
2015,09,01,17,36,8.10
2015,09,01,17,37,19.30
2015,09,01,17,38,9.60
2015,09,01,17,39,4.80
2015,09,01,17,40,11.30
2015,09,01,17,41,14.50
2015,09,01,17,42,22.50
2015,09,01,17,43,20.90
2015,09,01,17,44,11.30
2015,09,01,17,45,9.60
2015,09,01,17,46,11.30
2015,09,01,17,47,22.50
2015,09,01,17,48,24.20
2015,09,01,17,49,19.30
2015,09,01,17,50,22.50
2015,09,01,17,51,14.50
2015,09,01,17,52,16.10
2015,09,01,17,53,6.40
2015,09,01,17,54,11.30
2015,09,01,17,55,19.30
2015,09,01,17,56,19.30
2015,09,01,17,57,24.20
2015,09,01,17,58,20.90
2015,09,01,17,59,17.70
2015,09,01,18,00,14.50
2015,09,01,18,01,8.10
2015,09,01,18,02,11.30
2015,09,01,18,03,27.40
2015,09,01,18,04,6.40
2015,09,01,18,05,9.60
2015,09,01,18,06,20.90
2015,09,01,18,07,11.30
2015,09,01,18,08,25.70
2015,09,01,18,09,20.90
2015,09,01,18,10,11.30
2015,09,01,18,11,16.10
2015,09,01,18,12,9.60
2015,09,01,18,13,24.20
2015,09,01,18,14,19.30
2015,09,01,18,15,25.70
2015,09,01,18,16,24.20
2015,09,01,18,17,19.30
2015,09,01,18,18,20.90
2015,09,01,18,19,27.40
2015,09,01,18,20,41.80
2015,09,01,18,21,24.20
2015,09,01,18,22,16.10
2015,09,01,18,23,16.10
2015,09,01,18,24,17.70
2015,09,01,18,25,20.90
2015,09,01,18,26,20.90
2015,09,01,18,27,24.20
2015,09,01,18,28,27.40
2015,09,01,18,29,17.70
2015,09,01,18,30,19.30
2015,09,01,18,31,17.70
2015,09,01,18,32,29.00
2015,09,01,18,33,29.00
2015,09,01,18,34,17.70
2015,09,01,18,35,25.70
2015,09,01,18,36,16.10
2015,09,01,18,37,17.70
2015,09,01,18,38,17.70
2015,09,01,18,39,16.10
2015,09,01,18,40,19.30
2015,09,01,18,41,17.70
2015,09,01,18,42,16.10
2015,09,01,18,43,16.10
2015,09,01,18,44,11.30
2015,09,01,18,45,6.40
2015,09,01,18,46,20.90
2015,09,01,18,47,17.70
2015,09,01,18,48,17.70
2015,09,01,18,49,16.10
2015,09,01,18,50,16.10
2015,09,01,18,51,22.50
2015,09,01,18,52,19.30
2015,09,01,18,53,19.30
2015,09,01,18,54,22.50
2015,09,01,18,55,24.20
2015,09,01,18,56,22.50
2015,09,01,18,57,19.30
2015,09,01,18,58,17.70
2015,09,01,18,59,30.60
2015,09,01,19,00,29.00
2015,09,01,19,01,17.70
2015,09,01,19,02,16.10
2015,09,01,19,03,14.50
2015,09,01,19,04,9.60
2015,09,01,19,05,8.10
2015,09,01,19,06,14.50
2015,09,01,19,07,14.50
2015,09,01,19,08,20.90
2015,09,01,19,09,19.30
2015,09,01,19,10,17.70
2015,09,01,19,11,22.50
2015,09,01,19,12,8.10
2015,09,01,19,13,9.60
2015,09,01,19,14,20.90
2015,09,01,19,15,6.40
2015,09,01,19,16,8.10
2015,09,01,19,17,12.90
2015,09,01,19,18,6.40
2015,09,01,19,19,14.50
2015,09,01,19,20,11.30
2015,09,01,19,21,6.40
2015,09,01,19,22,9.60
2015,09,01,19,23,16.10
2015,09,01,19,24,20.90
2015,09,01,19,25,19.30
2015,09,01,19,26,8.10
2015,09,01,19,27,8.10
2015,09,01,19,28,17.70
2015,09,01,19,29,17.70
2015,09,01,19,30,17.70
2015,09,01,19,31,12.90
2015,09,01,19,32,19.30
2015,09,01,19,33,20.90
2015,09,01,19,34,22.50
2015,09,01,19,35,17.70
2015,09,01,19,36,11.30
2015,09,01,19,37,11.30
2015,09,01,19,38,9.60
2015,09,01,19,39,8.10
2015,09,01,19,40,11.30
2015,09,01,19,41,16.10
2015,09,01,19,42,24.20
2015,09,01,19,43,11.30
2015,09,01,19,44,9.60
2015,09,01,19,45,14.50
2015,09,01,19,46,9.60
2015,09,01,19,47,9.60
2015,09,01,19,48,6.40
2015,09,01,19,49,1.60
2015,09,01,19,50,8.10
2015,09,01,19,51,9.60
2015,09,01,19,52,14.50
2015,09,01,19,53,20.90
2015,09,01,19,54,29.00
2015,09,01,19,55,8.10
2015,09,01,19,56,8.10
2015,09,01,19,57,8.10
2015,09,01,20,00,11.30
2015,09,01,20,01,4.80
2015,09,01,20,02,16.10
2015,09,01,20,03,20.90
2015,09,01,20,04,8.10
2015,09,01,20,05,11.30
2015,09,01,20,06,8.10
2015,09,01,20,07,14.50
2015,09,01,20,08,14.50
2015,09,01,20,09,1.60
2015,09,01,20,10,9.60
2015,09,01,20,11,11.30
2015,09,01,20,13,11.30
2015,09,01,20,14,1.60
2015,09,01,20,15,6.40
2015,09,01,20,16,8.10
2015,09,01,20,17,9.60
2015,09,01,20,18,6.40
2015,09,01,20,19,11.30
2015,09,01,20,20,3.20
2015,09,01,20,21,3.20
2015,09,01,20,22,3.20
2015,09,01,20,23,6.40
2015,09,01,20,24,11.30
2015,09,01,20,25,9.60
2015,09,01,20,29,4.80
2015,09,01,20,34,1.60
2015,09,01,20,36,1.60
2015,09,01,20,37,1.60
2015,09,01,20,39,3.20
2015,09,01,20,40,4.80
2015,09,01,20,41,6.40
2015,09,01,20,42,3.20
2015,09,01,20,43,1.60
2015,09,01,20,45,3.20
2015,09,01,20,46,3.20
2015,09,01,20,47,3.20
2015,09,01,20,49,4.80
2015,09,01,20,50,8.10
2015,09,01,20,51,3.20
2015,09,01,20,52,1.60
2015,09,01,20,53,8.10
2015,09,01,20,54,8.10
2015,09,01,20,55,6.40
2015,09,01,20,56,6.40
2015,09,01,20,57,4.80
2015,09,01,21,01,1.60
2015,09,01,21,03,1.60
2015,09,01,21,04,1.60
2015,09,01,21,06,3.20
2015,09,01,21,07,4.80
2015,09,01,21,08,1.60
2015,09,01,21,11,4.80
2015,09,01,21,12,1.60
2015,09,01,21,13,1.60
2015,09,01,21,14,1.60
2015,09,01,21,16,1.60
2015,09,01,21,21,1.60
2015,09,01,21,22,1.60
2015,09,01,21,24,4.80
2015,09,01,21,25,1.60
2015,09,01,21,26,1.60
2015,09,01,21,36,3.20
2015,09,01,21,40,3.20
2015,09,01,21,41,1.60
2015,09,01,21,42,4.80
2015,09,01,21,43,3.20
2015,09,01,21,47,1.60
2015,09,01,21,48,3.20
2015,09,01,21,49,4.80
2015,09,01,21,50,4.80
2015,09,01,21,51,3.20
2015,09,01,21,54,3.20
2015,09,01,21,55,4.80
2015,09,01,21,56,1.60
2015,09,01,22,02,1.60
2015,09,01,22,07,1.60
2015,09,01,22,26,3.20
2015,09,01,22,27,3.20
2015,09,01,22,28,1.60
2015,09,01,22,32,4.80
2015,09,01,22,33,1.60
2015,09,01,22,34,1.60
2015,09,01,22,39,1.60
2015,09,01,22,46,1.60
2015,09,01,22,53,3.20
2015,09,01,22,58,3.20
2015,09,01,22,59,3.20
2015,09,01,23,02,1.60
2015,09,01,23,05,3.20
2015,09,01,23,06,3.20
2015,09,01,23,07,4.80
2015,09,01,23,08,3.20
2015,09,01,23,09,3.20
2015,09,01,23,13,1.60
2015,09,01,23,19,1.60
2015,09,01,23,24,1.60
2015,09,01,23,25,3.20
